Probability
0 3 0 3 3 3 3 3 0 0 0 0 0 0 0 0 0 0 0 0 0 0 0 0 0 0 0 0 0 0 0 0 0 0 0 0 0 0 0 0 0 0 0
0 3 0 0 0 3 3 0 0 0 0 0 0 0 0 0 0 0 0 0 0 0 0 0 0 0 0 0 0 0 0 0 0 0 0 0 0 0 0 0 0 0 0
0 0 0 0 0 3 3 0 0 0 0 0 0 0 0 0 0 0 0 0 0 0 0 0 0 0 0 0 0 0 0 0 0 0 0 0 0 0 0 0 0 0 0
0 0 0 0 0 0 0 0 0 0 0 0 0 0 0 0 0 0 0 0 0 0 0 0 0 0 0 0 0 0 0 0 0 0 0 0 0 0 0 0 0 0 0
0 0 3 0 0 0 0 0 0 0 0 0 0 0 0 0 0 0 0 0 0 0 0 0 0 0 0 0 0 0 0 0 0 0 0 0 0 0 0 0 0 0 0
0 0 0 0 0 0 0 0 0 0 0 0 0 0 0 0 0 0 0 0 0 0 0 0 0 0 0 0 0 0 0 0 0 0 0 0 0 0 0 0 0 0 0
0 0 0 0 0 0 0 0 0 0 0 0 0 0 0 0 0 0 0 0 0 0 0 0 0 0 0 0 0 0 0 0 0 0 0 0 0 0 0 0 0 0 0
0 0 0 0 0 0 0 0 0 0 0 0 0 0 0 0 0 0 0 0 0 0 0 0 0 0 0 0 0 0 0 0 0 0 0 0 0 0 0 0 0 0 0
0 0 0 0 0 0 0 0 0 0 0 0 0 0 0 0 0 0 0 0 0 0 0 0 0 0 0 0 0 0 0 0 0 0 0 0 0 0 0 0 0 0 0
0 0 0 0 0 0 0 0 0 0 0 0 0 0 0 0 0 0 0 0 0 0 0 0 0 0 0 0 0 0 0 0 0 0 0 0 0 0 0 0 0 0 0
0 0 0 0 0 0 0 0 0 0 0 0 0 0 0 0 0 0 0 0 0 0 0 0 0 0 0 0 0 0 0 0 0 0 0 0 0 0 0 0 0 0 0
0 0 0 0 0 0 0 0 0 0 0 0 0 0 0 0 0 0 0 0 0 0 0 0 0 0 0 0 0 0 0 0 0 0 0 0 0 0 0 0 0 0 0
0 0 0 0 0 0 0 0 0 0 0 0 0 0 0 0 0 0 0 0 0 0 0 0 0 0 0 0 0 0 0 0 0 0 0 0 0 0 0 0 0 0 0
0 0 0 0 0 0 0 0 0 0 0 0 0 0 0 0 0 0 0 0 0 0 0 0 0 0 0 0 0 0 0 0 0 0 0 0 0 0 0 0 0 0 0
0 0 0 0 0 0 0 0 0 0 0 0 0 0 0 0 0 0 0 0 0 0 0 0 0 0 0 0 0 0 0 0 0 0 0 0 0 0 0 0 0 0 0
0 0 0 0 0 0 0 0 0 0 0 0 0 0 0 0 0 0 0 0 0 0 0 0 0 0 0 0 0 0 0 0 0 0 0 0 0 0 0 0 0 0 0
0 0 0 0 0 0 0 0 0 0 0 0 0 0 0 0 0 0 0 0 0 0 0 0 0 0 0 0 0 0 0 0 0 0 0 0 0 0 0 0 0 0 0
0 0 0 0 0 0 0 0 0 0 0 0 0 0 0 0 0 0 0 0 0 0 0 0 0 0 0 0 0 0 0 0 0 0 0 0 0 0 0 0 0 0 0
0 0 0 0 0 0 0 0 0 0 0 0 0 0 0 0 0 0 0 0 0 0 0 0 0 0 0 0 0 0 0 0 0 0 0 0 0 0 0 0 0 0 0
0 0 0 0 0 0 0 0 0 0 0 0 0 0 0 0 0 0 0 0 0 0 0 0 0 0 0 0 0 0 0 0 0 0 0 0 0 0 0 0 0 0 0
0 0 0 0 0 0 0 0 0 0 0 0 0 0 0 0 0 0 0 0 0 0 0 0 0 0 0 0 0 0 0 0 0 0 0 0 0 0 0 0 0 0 0
0 0 0 0 0 0 0 0 0 0 0 0 0 0 0 0 0 0 0 0 0 0 0 0 0 0 0 0 0 0 0 0 0 0 0 0 0 0 0 0 0 0 0
0 0 0 0 0 0 0 0 0 0 0 0 0 0 0 0 0 0 0 0 0 0 0 0 0 0 0 0 0 0 0 0 0 0 0 0 0 0 0 0 0 0 0
0 0 0 0 0 0 0 0 0 0 0 0 0 0 0 0 0 0 0 0 0 0 0 0 0 0 0 0 0 0 0 0 0 0 0 0 0 0 0 0 0 0 0
0 0 0 0 0 0 0 0 0 0 0 0 0 0 0 0 0 0 0 0 0 0 0 0 0 0 0 0 0 0 0 0 0 0 0 0 0 0 0 0 0 0 0
0 0 0 0 0 0 0 0 0 0 0 0 0 0 0 0 0 0 0 0 0 0 0 0 0 0 0 0 0 0 0 0 0 0 0 0 0 0 0 0 0 0 0
Height
5714 5715 5717 5718 5720 5721 5722 5723 5724 5725 5727 5729 5731 5733 5735 5738 5741 5744 5747 5750 5753 5756 5759 5762 5764 5766 5769 5770 5772 5773 5774 5775 5775 5776 5776 5776 5776 5775 5775 5774 5773 5772 5771
5707 5708 5709 5711 5712 5714 5714 5715 5716 5718 5719 5721 5723 5725 5728 5730 5733 5736 5738 5741 5744 5747 5750 5753 5755 5757 5760 5762 5763 5764 5765 5766 5767 5767 5768 5768 5769 5767 5767 5766 5764 5763 5762
5700 5702 5703 5704 5705 5706 5707 5708 5709 5710 5711 5713 5715 5717 5720 5723 5726 5728 5731 5733 5736 5739 5741 5744 5746 5748 5751 5753 5755 5756 5757 5758 5758 5758 5759 5759 5759 5760 5759 5757 5756 5754 5753
5693 5694 5695 5697 5697 5698 5699 5700 5701 5703 5704 5705 5707 5710 5712 5715 5717 5720 5723 5725 5727 5729 5733 5734 5736 5739 5742 5744 5745 5746 5748 5749 5749 5749 5749 5749 5749 5749 5750 5749 5748 5746 5745
5687 5687 5688 5689 5690 5691 5692 5693 5694 5695 5696 5698 5700 5702 5705 5707 5709 5712 5715 5717 5719 5721 5724 5726 5727 5729 5732 5734 5735 5736 5738 5739 5740 5740 5739 5739 5739 5739 5739 5739 5739 5737 5736
5680 5681 5682 5683 5683 5684 5685 5686 5687 5688 5689 5691 5693 5695 5698 5700 5702 5704 5707 5709 5710 5713 5715 5716 5718 5720 5722 5724 5725 5727 5728 5729 5730 5730 5730 5730 5730 5730 5730 5729 5729 5728 5728
5674 5674 5675 5676 5677 5677 5678 5679 5680 5681 5683 5684 5686 5688 5690 5692 5694 5697 5698 5700 5702 5704 5705 5707 5709 5710 5712 5714 5715 5717 5718 5719 5720 5721 5721 5721 5721 5720 5720 5720 5720 5719 5719
5667 5667 5668 5668 5669 5670 5671 5672 5673 5675 5676 5677 5679 5681 5682 5684 5686 5688 5690 5692 5693 5695 5696 5698 5699 5700 5702 5704 5705 5706 5708 5709 5710 5711 5711 5711 5711 5711 5711 5710 5710 5710 5710
5661 5661 5661 5662 5662 5663 5664 5665 5666 5668 5669 5670 5671 5673 5675 5676 5678 5680 5682 5683 5684 5685 5686 5688 5689 5690 5691 5693 5694 5696 5697 5699 5700 5700 5701 5701 5701 5701 5701 5701 5700 5700 5700
5654 5654 5655 5656 5656 5657 5658 5658 5659 5660 5662 5663 5664 5665 5667 5669 5670 5671 5673 5674 5675 5675 5676 5678 5679 5680 5681 5683 5684 5686 5687 5688 5689 5690 5691 5691 5691 5691 5691 5691 5691 5690 5690
5648 5649 5649 5649 5650 5651 5652 5652 5653 5653 5654 5655 5656 5658 5659 5661 5662 5663 5664 5665 5665 5666 5667 5668 5669 5670 5671 5672 5674 5675 5676 5678 5679 5680 5680 5681 5681 5681 5681 5681 5681 5680 5680
5643 5643 5643 5644 5644 5645 5645 5646 5647 5647 5648 5648 5649 5650 5652 5653 5654 5655 5655 5656 5656 5657 5657 5658 5659 5660 5661 5661 5663 5664 5665 5667 5668 5669 5670 5671 5671 5671 5671 5671 5671 5671 5670
5637 5637 5637 5638 5638 5639 5639 5640 5640 5641 5641 5642 5642 5643 5645 5646 5646 5647 5647 5647 5647 5648 5648 5649 5649 5650 5651 5652 5652 5653 5655 5657 5658 5659 5660 5660 5661 5661 5661 5661 5661 5660 5660
5631 5632 5632 5632 5632 5633 5633 5634 5634 5635 5635 5635 5635 5636 5637 5638 5638 5639 5639 5639 5639 5640 5640 5640 5641 5641 5641 5642 5642 5643 5645 5646 5648 5649 5650 5650 5651 5651 5651 5651 5651 5650 5650
5626 5626 5625 5626 5626 5626 5627 5627 5628 5628 5628 5628 5629 5629 5630 5631 5631 5631 5631 5631 5631 5632 5632 5632 5632 5632 5632 5632 5633 5634 5635 5636 5637 5638 5639 5640 5641 5641 5641 5641 5641 5641 5640
5620 5620 5620 5619 5620 5620 5621 5621 5621 5622 5622 5622 5622 5623 5623 5623 5624 5624 5623 5623 5623 5624 5623 5623 5623 5623 5623 5623 5624 5624 5625 5626 5627 5628 5629 5630 5631 5631 5631 5631 5631 5631 5630
5615 5614 5614 5613 5613 5614 5614 5615 5615 5615 5615 5615 5615 5616 5616 5616 5616 5616 5616 5615 5615 5615 5615 5615 5615 5615 5615 5614 5615 5615 5615 5616 5618 5619 5620 5621 5622 5622 5622 5621 5621 5620 5620
5609 5609 5608 5607 5607 5607 5608 5608 5608 5608 5608 5608 5608 5608 5608 5608 5608 5608 5608 5607 5607 5607 5607 5607 5607 5606 5606 5606 5606 5606 5606 5607 5608 5609 5610 5611 5611 5612 5612 5612 5611 5611 5610
5603 5602 5602 5601 5601 5601 5601 5601 5601 5601 5601 5600 5601 5601 5600 5600 5601 5601 5600 5600 5599 5599 5598 5598 5598 5598 5598 5597 5597 5597 5597 5598 5599 5599 5600 5600 5601 5601 5602 5601 5601 5601 5601
5596 5595 5595 5594 5594 5594 5593 5593 5593 5593 5593 5592 5593 5593 5593 5593 5593 5593 5592 5591 5591 5591 5590 5589 5589 5589 5588 5588 5588 5588 5589 5589 5589 5590 5590 5590 5591 5591 5591 5591 5591 5591 5590
5589 5588 5588 5587 5587 5587 5586 5585 5585 5585 5585 5585 5584 5584 5584 5584 5584 5584 5584 5583 5583 5582 5581 5581 5580 5580 5579 5579 5579 5579 5579 5579 5579 5579 5580 5580 5580 5580 5581 5581 5581 5580 5580
5582 5581 5580 5580 5580 5579 5579 5578 5577 5577 5577 5576 5576 5576 5576 5576 5575 5575 5575 5574 5574 5573 5572 5572 5571 5570 5570 5569 5569 5569 5568 5568 5568 5569 5569 5569 5569 5570 5570 5570 5570 5570 5569
5575 5574 5574 5573 5572 5572 5571 5570 5569 5569 5568 5568 5568 5567 5567 5567 5567 5566 5566 5565 5565 5564 5563 5562 5561 5561 5560 5559 5559 5559 5558 5558 5558 5558 5558 5558 5558 5559 5559 5559 5560 5559 5559
5568 5567 5567 5566 5565 5564 5563 5563 5562 5561 5561 5560 5560 5559 5558 5558 5558 5557 5557 5556 5555 5554 5553 5553 5552 5551 5550 5549 5548 5548 5548 5548 5547 5547 5547 5547 5547 5548 5548 5549 5549 5549 5549
5561 5560 5559 5559 5558 5557 5556 5555 5554 5553 5553 5552 5551 5551 5550 5549 5549 5548 5547 5546 5546 5544 5544 5543 5542 5541 5540 5539 5538 5537 5537 5537 5536 5536 5536 5537 5537 5538 5538 5538 5539 5539 5539
5554 5553 5552 5551 5550 5549 5548 5547 5546 5545 5545 5544 5543 5542 5541 5541 5540 5539 5538 5537 5536 5535 5533 5532 5532 5531 5530 5529 5528 5527 5526 5526 5526 5526 5526 5527 5527 5527 5528 5528 5529 5529 5529
Wind_Speed
28 29 30 31 31 32 34 35 34 34 35 35 34 35 35 36 37 37 37 39 39 39 39 40 39 39 39 38 38 37 36 36 36 36 36 35 34 34 35 36 35 35 35
27 27 28 30 31 32 32 33 35 34 34 35 35 36 36 36 37 37 37 38 39 38 39 40 40 40 39 39 39 39 38 37 36 37 37 37 36 36 35 36 37 36 35
26 28 29 29 29 30 31 32 33 33 34 35 35 36 35 35 36 36 36 37 38 38 38 39 39 39 39 40 40 40 39 38 38 38 38 39 39 37 35 36 37 36 36
26 27 29 30 29 29 30 31 32 34 35 36 36 36 35 35 35 36 36 35 36 38 39 39 39 39 40 40 40 41 40 39 38 38 39 39 39 39 37 37 37 36 35
25 26 28 29 29 28 28 29 30 32 33 35 35 35 35 35 35 35 36 36 36 37 39 39 39 40 41 40 40 41 41 40 39 38 38 39 38 38 38 37 36 35 35
24 26 27 29 29 29 28 29 30 31 32 33 34 35 34 34 34 35 35 35 36 37 38 40 38 38 40 40 40 40 40 40 40 39 38 38 39 38 38 38 37 36 36
24 26 27 28 29 28 28 28 30 30 31 32 32 34 34 33 33 35 36 36 37 37 38 38 39 39 39 39 40 40 40 41 40 39 39 38 38 38 38 38 37 37 37
23 24 26 27 29 28 28 28 29 29 30 31 32 34 34 34 34 34 35 35 36 36 37 39 40 41 41 40 40 41 41 42 41 41 40 39 39 39 39 38 38 38 38
22 22 24 26 27 27 26 26 27 29 30 31 32 33 33 33 33 33 33 33 35 36 37 39 40 41 40 40 40 40 41 42 42 41 40 40 39 39 39 39 39 38 37
21 21 22 23 25 26 26 26 26 28 29 31 31 32 33 33 32 32 32 32 34 36 36 37 38 40 41 40 41 41 41 40 40 39 40 40 40 40 39 39 39 38 38
20 21 21 23 24 25 26 26 25 26 28 29 31 30 31 32 31 31 31 31 32 34 35 36 36 37 39 40 40 40 40 40 39 38 38 38 39 39 39 38 38 38 38
20 21 21 22 23 24 24 25 25 25 26 27 29 31 30 30 30 30 31 31 32 32 32 33 34 36 37 38 39 38 38 38 38 37 37 38 38 39 38 38 37 37 37
21 21 21 21 22 23 24 24 24 24 25 26 26 28 29 30 30 30 30 30 31 32 32 33 33 35 36 37 38 38 37 37 37 37 36 37 37 37 36 36 37 37 37
20 21 21 21 21 23 24 24 24 23 24 25 25 25 27 29 29 29 30 30 30 31 32 32 33 34 35 36 37 37 37 36 36 37 37 37 36 36 36 36 37 37 38
19 20 21 22 22 22 23 23 23 23 23 24 24 24 26 28 28 28 29 29 30 31 31 32 33 34 34 34 36 36 35 36 35 36 37 37 36 36 36 36 35 36 36
19 19 19 20 22 22 23 24 23 22 23 23 24 24 25 26 27 27 28 27 28 29 30 31 32 32 32 32 33 34 34 35 34 34 34 35 35 35 34 34 34 35 35
20 20 20 21 22 22 23 24 24 23 23 24 24 25 26 26 26 26 26 27 27 28 28 29 30 30 31 31 32 32 33 33 33 33 33 33 33 33 33 33 34 34 34
21 21 20 20 20 21 23 23 24 24 24 24 25 26 26 26 26 27 27 27 28 28 29 29 29 29 29 29 30 31 31 31 33 34 34 34 35 35 34 35 34 34 34
20 21 21 20 21 21 22 24 24 24 25 25 25 26 26 26 26 27 27 27 27 27 28 29 29 29 29 29 30 30 31 32 33 34 35 35 35 35 34 34 35 35 35
21 21 21 21 21 22 23 24 25 25 26 26 26 27 27 26 26 27 27 27 27 27 27 28 29 30 30 30 30 31 32 33 33 34 35 36 35 35 34 34 35 36 36
21 21 21 21 22 23 23 24 25 26 27 27 27 27 27 27 28 28 28 28 29 29 29 30 31 31 31 31 31 32 33 34 34 34 35 36 36 36 35 34 34 35 35
22 21 22 22 22 23 23 24 24 25 26 27 28 28 28 29 29 29 29 29 30 30 31 31 31 32 32 32 32 33 33 34 34 35 36 37 36 36 36 35 34 34 34
22 22 22 22 23 23 24 24 25 25 25 26 27 28 28 29 29 29 29 30 30 30 31 31 31 32 32 33 34 34 34 34 35 36 37 37 36 36 35 35 34 34 34
22 23 23 23 23 23 24 24 25 25 25 25 26 27 27 28 29 29 30 30 31 31 31 31 31 32 32 33 33 34 35 36 36 36 36 36 35 35 34 34 34 33 33
23 24 24 24 24 24 24 25 25 26 26 26 26 26 27 27 28 29 30 30 31 31 31 31 31 32 32 32 33 34 35 35 35 35 34 34 34 33 33 33 33 32 32
24 25 25 26 26 26 26 26 27 27 28 28 27 28 28 29 29 29 29 30 32 32 32 32 32 32 32 33 34 34 34 34 34 33 32 32 32 32 32 32 32 31 30
Wind_Direction
247 247 247 248 251 253 252 249 251 250 248 247 249 248 247 247 246 247 247 247 247 248 247 250 251 253 255 256 258 260 262 265 265 264 264 265 268 270 273 274 276 278 279
247 249 249 251 253 253 253 252 251 251 248 247 249 247 246 247 247 247 248 248 247 248 249 250 252 255 256 258 261 263 264 265 267 267 265 266 268 270 272 274 275 276 277
252 251 251 252 254 254 253 253 254 252 251 248 249 248 247 247 247 248 249 250 249 248 250 250 251 253 254 257 259 262 263 265 268 269 267 267 268 268 271 273 275 275 276
254 252 255 254 254 253 252 253 255 253 251 250 250 248 248 248 249 249 250 251 250 249 250 252 252 252 255 257 259 261 262 264 268 270 270 270 271 271 271 272 273 274 277
257 254 253 253 253 251 252 251 253 252 250 250 248 248 249 250 250 249 250 252 251 249 250 252 253 253 254 256 259 261 262 264 265 268 270 270 270 272 273 273 274 274 276
258 257 255 253 252 251 253 253 254 253 251 250 248 247 249 250 250 250 250 253 252 250 251 252 254 255 255 257 258 260 261 263 264 266 269 270 269 270 273 274 273 274 276
260 258 256 254 253 253 254 255 255 254 252 250 249 248 248 249 249 250 252 254 254 252 253 252 253 255 256 256 257 259 260 262 264 266 267 269 269 270 272 273 273 274 275
261 261 258 257 255 255 255 256 256 253 253 250 250 250 248 248 250 252 253 254 254 254 253 253 253 255 256 256 257 259 260 261 262 265 268 269 269 269 270 272 273 275 275
264 262 259 255 255 256 257 257 255 253 252 251 252 252 250 249 252 255 256 257 257 257 256 256 253 254 255 257 258 259 260 261 262 264 266 267 268 269 270 272 273 275 276
264 262 260 256 255 258 259 259 258 254 254 252 253 254 253 252 254 255 257 259 259 258 258 258 257 257 257 258 258 261 261 261 261 263 264 266 267 268 270 272 273 274 274
263 262 260 258 257 259 259 260 259 257 257 255 253 254 255 255 256 258 259 261 263 262 261 259 258 257 257 257 258 259 261 261 261 262 265 266 267 268 270 271 272 273 274
267 266 264 262 262 262 260 261 261 258 258 259 255 255 257 258 258 259 261 263 264 266 265 265 262 259 258 258 258 259 260 259 260 262 264 266 267 268 270 271 271 272 273
270 271 269 266 265 265 263 263 262 261 261 261 258 256 256 260 262 261 263 266 267 266 264 266 265 265 262 261 259 260 259 259 260 262 264 266 266 268 269 270 271 271 272
270 269 268 267 266 265 264 263 263 262 262 262 261 260 259 260 263 264 267 268 267 266 266 267 267 267 266 263 262 262 261 261 261 261 263 266 267 268 269 270 271 271 271
270 270 269 267 266 265 263 263 264 262 262 260 259 259 261 263 265 267 267 268 268 267 267 268 268 268 269 267 264 263 262 261 261 262 264 265 267 268 269 270 271 271 271
271 271 272 269 267 266 264 264 266 265 263 261 259 262 264 266 267 268 268 268 267 267 267 268 269 269 269 268 266 263 262 262 262 262 263 264 266 268 268 269 269 270 272
270 270 271 270 268 268 267 265 265 266 266 264 261 263 266 266 267 268 268 268 268 268 269 269 270 269 269 268 267 266 264 262 262 263 263 263 265 268 269 270 269 271 273
269 269 270 270 269 268 267 266 266 265 265 266 265 266 266 265 268 268 269 270 268 268 268 269 271 271 271 271 269 267 265 264 264 263 263 263 264 267 271 270 269 271 273
268 268 269 269 269 269 267 265 264 264 264 265 266 267 266 265 267 267 269 268 268 269 270 269 271 272 272 272 270 268 267 267 264 263 264 264 265 267 269 269 269 271 272
266 267 268 268 269 270 270 268 263 262 263 265 266 267 267 267 266 267 269 271 272 273 274 273 273 274 273 271 269 268 268 268 266 264 264 264 266 268 268 269 270 271 272
266 267 269 269 270 271 272 268 264 262 263 264 266 267 267 268 269 271 273 274 275 276 277 276 275 274 272 270 269 269 269 269 268 266 265 266 266 266 267 269 270 271 272
266 267 268 270 272 273 274 271 269 267 267 266 267 268 268 269 272 273 274 275 276 276 277 277 276 274 272 271 269 269 269 270 269 268 267 267 267 266 267 270 270 271 272
272 269 269 270 273 274 274 272 271 271 270 269 269 269 269 270 271 272 274 276 277 278 277 277 277 275 273 272 271 269 269 270 270 269 268 267 268 267 267 269 270 270 270
275 273 272 272 274 275 276 276 274 272 273 274 272 272 271 271 271 273 275 277 278 279 279 278 278 275 274 274 272 270 270 270 271 270 269 267 266 267 267 268 269 270 271
276 275 275 274 275 277 276 275 275 274 274 275 274 272 272 272 273 275 277 279 280 282 281 280 279 277 275 274 273 272 272 271 271 271 269 267 266 266 266 266 267 269 269
276 277 275 275 275 276 277 277 276 275 275 276 275 274 274 273 275 277 277 278 280 281 280 280 281 279 276 275 275 273 272 271 270 270 268 266 266 265 264 264 266 268 268